Abilene, TX

4:45 AM CDT on September 26, 2017 (GMT -0500)
Abilene Regional

Weather History for KABI - December, 2012

Change the Weather History Date:

Monday, December 17, 2012

  Actual Average Record
Temperature  
Mean Temperature 55 °F 45 °F  
Max Temperature 68 °F 56 °F 78 °F (1962)
Min Temperature 42 °F 33 °F 16 °F (1887)
Degree Days  
Heating Degree Days 10 20  
Month to date heating degree days 185 319  
Since 1 July heating degree days 527 752  
Cooling Degree Days 0 0  
Month to date cooling degree days 16 0  
Year to date cooling degree days 3049 2408  
Growing Degree Days 5 (Base 50)    
Moisture  
Dew Point 23 °F    
Average Humidity 29    
Maximum Humidity 43    
Minimum Humidity 15    
Precipitation  
Precipitation 0.00 in 0.05 in 0.92 in (1898)
Month to date precipitation T 0.69  
Year to date precipitation 23.16 24.28  
Sea Level Pressure  
Sea Level Pressure 29.86 in    
Wind  
Wind Speed 12 mph (West)    
Max Wind Speed 26 mph    
Max Gust Speed 35 mph    
Visibility 10 miles    
Events      
T = Trace of Precipitation, MM = Missing Value Source: NWS Daily Summary

Daily Weather History Graph

Daily Weather History Graph

Search for Another Location

Airport or City:

Trip Planner

Search our weather history database for the weather conditions in past years. The results will help you decide how hot, cold, wet, or windy it might be!

Date:

Astronomy

Dec. 17, 2012 Rise Set
Actual Time 7:34 AM CST 5:36 PM CST
Civil Twilight 7:07 AM CST 6:03 PM CST
Nautical Twilight 6:36 AM CST 6:33 PM CST
Astronomical Twilight 6:06 AM CST 7:03 PM CST
Moon 10:57 AM CST (12/17) 10:43 PM CST (12/17)
Length of Visible Light 10h 56m
Length of Day
10h 01m
Waxing Crescent, 25% of the Moon is Illuminated
Dec 17
Waxing Crescent
Dec 19
First Quarter
Dec 28
Full
Jan 4
Last Quarter
Jan 11
New

Hourly Weather History & Observations

Time (CST) Temp. Windchill Dew Point Humidity Pressure Visibility Wind Dir Wind Speed Gust Speed Precip Events Conditions
12:52 AM 53.1 °F - 27.0 °F 37% 29.83 in 10.0 mi West 12.7 mph - N/A   Clear
1:52 AM 51.1 °F - 26.1 °F 38% 29.85 in 10.0 mi WNW 12.7 mph - N/A   Clear
2:52 AM 48.9 °F - 24.1 °F 38% 29.83 in 10.0 mi WNW 11.5 mph - N/A   Clear
3:52 AM 46.9 °F - 24.1 °F 41% 29.84 in 10.0 mi WNW 11.5 mph - N/A   Clear
4:52 AM 46.0 °F 40.6 °F 24.1 °F 42% 29.87 in 10.0 mi West 11.5 mph - N/A   Clear
5:52 AM 44.1 °F 39.0 °F 23.0 °F 43% 29.88 in 10.0 mi West 9.2 mph - N/A   Clear
6:52 AM 43.0 °F 36.8 °F 21.9 °F 43% 29.93 in 10.0 mi WNW 11.5 mph - N/A   Clear
7:52 AM 42.1 °F 36.1 °F 21.9 °F 45% 29.95 in 10.0 mi West 10.4 mph - N/A   Clear
8:52 AM 46.0 °F 41.0 °F 21.9 °F 39% 29.94 in 10.0 mi WNW 10.4 mph - N/A   Clear
9:52 AM 48.9 °F - 21.0 °F 33% 29.94 in 10.0 mi WNW 15.0 mph - N/A   Clear
10:52 AM 52.0 °F - 21.9 °F 31% 29.94 in 10.0 mi West 15.0 mph 21.9 mph N/A   Clear
11:52 AM 55.9 °F - 21.9 °F 27% 29.91 in 10.0 mi West 12.7 mph - N/A   Clear
12:52 PM 61.0 °F - 21.9 °F 22% 29.85 in 10.0 mi West 13.8 mph 18.4 mph N/A   Clear
1:52 PM 64.9 °F - 19.9 °F 18% 29.81 in 10.0 mi West 24.2 mph 34.5 mph N/A   Clear
2:52 PM 66.9 °F - 21.0 °F 17% 29.80 in 10.0 mi WNW 19.6 mph 27.6 mph N/A   Clear
3:52 PM 68.0 °F - 19.0 °F 15% 29.78 in 10.0 mi West 17.3 mph 28.8 mph N/A   Clear
6:52 PM 55.0 °F - 21.9 °F 28% 29.82 in 10.0 mi SSW 5.8 mph - N/A   Clear
7:52 PM 52.0 °F - 23.0 °F 32% 29.83 in 10.0 mi SW 8.1 mph - N/A   Clear
8:52 PM 54.0 °F - 23.0 °F 30% 29.84 in 10.0 mi SW 6.9 mph - N/A   Clear
9:52 PM 50.0 °F - 21.9 °F 33% 29.84 in 10.0 mi SSW 6.9 mph - N/A   Clear
10:52 PM 50.0 °F - 23.0 °F 35% 29.84 in 10.0 mi SSW 8.1 mph - N/A   Clear
11:52 PM 48.9 °F - 24.1 °F 38% 29.83 in 10.0 mi SW 4.6 mph - N/A   Clear